Regional Weather Roundup
Issued by NWS

Home | Current Version | Previous Version | Graphics & Text | Print | Product List | Glossary On
Versions: 1 2 3 4 5 6 7 8 9 10 11 12 13 14 15 16 17 18 19 20 21 22 23 24 25 26 27 28 29 30 31 32 33 34 35 36 37 38 39 40 41 42 43 44 45 46 47 48 49 50
000
ASUS45 KCYS 021310
RWRWY

WYOMING REGIONAL WEATHER ROUNDUP
NATIONAL WEATHER SERVICE CHEYENNE WY
700 AM MDT THU JUL 02 2015

NOTE:  "FAIR" INDICATES FEW OR NO CLOUDS BELOW 12,000 FEET
WITH NO SIGNIFICANT WEATHER AND/OR OBSTRUCTIONS TO VISIBILITY.

WYZ001-021400-
YELLOWSTONE NATIONAL PARK

CITY           SKY/WX    TMP DP  RH WIND       PRES   REMARKS
LK YELLOWSTONE   N/A     48  42  80 CALM      30.38S
W YELLOWSTONE  NOT AVBL

$$
WYZ002>013-054>058-071-098>099-021400-
NORTHERN WYOMING

CITY           SKY/WX    TMP DP  RH WIND       PRES   REMARKS
JACKSON        FAIR      54  46  76 N5        30.27R
CODY           FAIR      63  46  55 CALM      30.23S
GREYBULL       FAIR      69  52  54 CALM      30.14R
WORLAND        FAIR      65  54  67 S3        30.16R
SHERIDAN       FAIR      63  55  75 W9        30.18R
BUFFALO        FAIR      62  54  74 NW7       30.23R
GILLETTE       FAIR      61  56  83 SW3       30.16S
NEWCASTLE      NOT AVBL

$$
WYZ014>020-022>026-101>103-021400-
CENTRAL WYOMING

CITY           SKY/WX    TMP DP  RH WIND       PRES   REMARKS
BIG PINEY      FAIR      53  41  63 SE5       30.31R
PINEDALE       FAIR      54  43  66 CALM      30.31R
DUBOIS         NOT AVBL
LANDER         FAIR      63  54  72 SW3       30.25S
RIVERTON       FAIR      63  54  72 W3        30.26R
CASPER         FAIR      58  55  90 CALM      30.23S
DOUGLAS        FAIR      62  60  93 NW6       30.21S

$$
WYZ021-027>030-104>119-021400-
SOUTHERN WYOMING

CITY           SKY/WX    TMP DP  RH WIND       PRES   REMARKS
EVANSTON       FAIR      60  41  49 SE8       30.29R
FORT BRIDGER   SUNNY     63  41  45 CALM      30.32R
ROCK SPRINGS   FAIR      62  51  67 CALM      30.29R
RAWLINS        FAIR      59  54  83 N7        30.29S
LARAMIE        PTSUNNY   55  53  93 SW12      30.34R
CHEYENNE       PTSUNNY   56  54  93 W12       30.26F
TORRINGTON     FAIR      61  58  90 W9        30.14S

$$



USA.gov is the U.S. government's official web portal to all federal, state and local government web resources and services.